Wind_Speed
21 22 24 24 21 19 18 17 18 18 15 13 13 13 14 14 13 12 11 12 13 14 14 15 18 19 18 17 16 16 19 21 19 17 16 14 14 14 15 15 14 11 8 9 12 14 14 13 13 14 15 16 15 14 14 13 12 12 12 12 12 13 15 15 15 14 15 15 15 15 15 15 16 17 18 17 17 18 18 19 20 20 20 20 20 21
21 23 22 18 15 15 16 18 18 17 15 13 14 15 15 14 13 12 12 12 13 14 15 16 19 21 18 17 16 17 20 21 19 18 17 15 15 15 15 14 13 12 10 11 12 13 13 13 14 15 16 16 15 15 15 14 13 13 12 11 12 14 15 15 15 15 15 15 15 16 16 17 18 19 18 18 18 19 20 20 19 20 20 20 21 21
22 22 18 15 16 17 18 19 18 17 14 13 13 13 13 13 12 12 12 12 13 14 15 17 21 22 19 17 17 17 20 20 19 20 18 17 16 15 14 13 12 12 10 11 12 13 14 15 15 16 16 16 16 17 17 15 14 14 12 11 12 14 14 15 15 15 15 15 17 17 17 17 18 18 18 19 19 20 20 19 19 19 19 20 21 22
21 18 17 18 19 19 19 19 19 19 17 15 14 13 12 12 11 10 10 11 12 13 15 17 21 22 19 18 17 16 19 20 18 19 18 17 16 15 14 14 12 11 11 12 14 15 16 16 16 15 14 14 15 17 17 16 15 14 13 13 13 14 15 15 15 15 15 16 17 17 16 17 17 17 18 18 18 18 19 19 19 19 20 21 22 23
16 14 18 21 20 19 19 20 20 20 20 18 17 15 13 12 10 9 9 10 12 14 17 19 21 22 20 17 16 15 16 18 17 16 14 13 14 14 14 14 13 12 13 15 16 17 18 17 15 14 14 14 13 13 14 15 15 15 14 14 14 14 15 15 15 15 16 16 16 16 16 16 16 16 16 17 17 17 18 19 20 21 22 24 24 25
16 14 17 21 20 20 20 20 20 20 20 19 18 17 15 13 12 11 11 12 14 14 16 16 12 14 17 13 10 11 11 12 13 12 10 10 11 12 13 13 13 13 15 16 16 17 18 17 16 14 13 14 14 13 13 15 15 15 15 14 14 14 15 16 16 16 16 16 15 15 15 15 15 15 15 15 16 18 19 20 21 22 24 25 25 26
19 17 15 18 20 20 20 20 20 20 20 18 17 17 16 15 15 14 14 13 11 9 11 10 5 10 19 17 13 13 11 10 11 9 8 10 11 12 11 11 12 13 15 15 15 17 18 18 17 16 15 15 16 16 16 16 15 15 14 14 14 15 15 15 15 15 15 15 15 15 15 15 16 15 14 15 17 19 20 21 22 22 23 24 25 25
21 20 16 17 19 20 21 20 20 20 19 17 16 15 14 15 14 14 14 13 12 11 12 13 11 13 23 23 18 15 11 8 8 9 9 10 10 11 10 10 12 14 15 15 15 16 16 17 17 17 16 15 15 15 16 16 15 15 14 14 14 14 14 14 14 15 15 15 15 15 16 16 16 15 14 16 19 20 20 21 20 21 21 22 22 23
19 21 19 18 19 20 21 20 19 20 18 16 15 14 13 12 12 12 12 11 12 13 13 14 12 10 18 26 22 18 16 11 11 12 11 10 9 10 11 11 13 14 15 15 13 13 12 13 13 14 15 15 15 15 15 15 15 15 15 14 13 13 14 14 14 15 15 15 15 16 16 16 15 15 16 18 19 19 20 19 19 20 20 20 21 21
17 19 20 19 19 20 20 20 20 19 18 16 15 14 12 11 10 10 10 10 10 10 11 14 13 7 14 26 23 20 18 13 11 9 7 7 7 9 10 12 13 14 15 14 13 12 11 10 9 9 11 13 14 15 14 15 15 15 15 14 13 14 15 15 15 15 15 15 15 15 16 15 15 16 17 18 19 19 19 19 19 19 20 20 20 20
19 17 20 21 20 19 18 19 20 19 17 16 15 14 11 9 8 8 9 9 7 7 8 12 15 11 9 16 17 14 11 6 6 6 8 10 9 8 8 11 13 14 15 14 14 13 10 9 8 8 8 9 13 15 15 14 15 15 15 14 14 15 16 16 16 16 15 15 15 15 15 15 16 17 18 19 18 19 19 19 19 20 20 20 19 19
20 17 19 22 21 20 19 18 18 18 17 15 13 13 10 6 5 6 7 6 4 4 3 6 12 15 12 8 4 2 3 2 4 7 12 12 10 9 9 10 12 14 15 14 14 13 12 11 10 10 9 9 11 14 15 14 14 15 15 15 16 16 18 18 19 18 17 16 15 15 16 15 16 17 18 18 18 19 19 19 19 20 20 19 18 18
22 20 19 20 21 22 20 19 19 17 17 15 13 12 9 3 1 3 3 3 5 6 4 5 7 12 20 19 12 7 8 10 9 10 13 12 10 10 12 12 13 14 14 14 14 13 12 11 10 10 10 10 10 12 14 15 14 14 14 14 15 16 18 20 20 20 19 18 16 16 17 16 17 17 17 17 18 18 19 19 19 20 19 18 18 18
19 19 22 23 22 24 24 23 23 21 18 17 16 14 11 4 3 3 3 2 5 6 7 9 7 10 18 17 14 13 17 21 20 16 14 12 11 11 12 12 13 13 14 15 13 12 10 9 8 8 9 10 11 12 14 15 14 13 13 13 13 15 17 18 19 19 19 18 18 18 18 18 18 18 18 17 18 18 18 18 19 20 20 20 20 20
21 16 24 28 24 24 26 24 22 19 18 18 18 18 16 12 6 3 4 3 2 1 6 10 6 6 5 2 4 2 2 10 17 18 17 13 12 13 14 14 14 14 14 13 10 9 9 8 7 7 8 9 10 11 12 12 11 11 12 12 12 14 16 16 16 17 17 18 19 20 19 19 20 19 19 18 18 18 18 18 19 20 21 22 23 24
27 20 22 28 27 23 23 24 22 18 17 18 19 21 20 18 11 5 3 4 1 2 3 9 11 11 9 7 4 6 8 6 5 14 17 13 12 13 14 14 13 13 13 12 11 10 9 7 5 4 5 5 6 8 9 9 10 10 11 12 11 13 15 17 17 17 18 19 20 21 21 21 21 21 21 20 19 19 19 20 21 22 24 25 26 27
27 21 17 21 27 25 21 22 24 22 20 19 22 25 22 18 15 9 4 3 2 3 6 10 16 19 17 14 12 8 7 5 4 10 14 12 10 11 13 14 14 14 14 14 13 11 8 6 5 4 3 4 6 7 9 11 12 13 14 14 14 14 15 17 18 19 20 21 21 22 22 22 22 21 21 21 21 21 22 22 22 24 25 27 28 28
25 21 17 19 23 26 24 23 24 25 24 22 23 25 22 16 16 13 4 1 1 2 7 11 17 20 17 13 10 10 16 18 14 13 14 13 12 12 14 14 15 15 14 13 12 10 8 7 6 6 6 7 8 10 11 13 15 17 19 20 19 19 19 19 20 20 21 22 22 23 22 22 22 22 22 22 23 23 23 23 24 25 27 29 30 30
24 18 17 21 22 23 26 25 25 27 28 27 24 22 19 14 12 13 7 1 1 2 5 7 12 18 21 18 11 6 9 12 15 17 18 19 18 16 16 15 15 14 13 14 13 12 12 11 10 10 11 12 13 15 15 16 18 20 21 23 24 24 24 24 24 24 24 24 24 24 23 22 21 22 23 23 24 25 24 24 25 27 29 31 33 34
26 18 15 21 24 23 26 30 32 33 32 31 25 20 19 15 12 15 14 7 3 3 3 3 5 11 15 15 12 12 11 12 16 18 19 21 21 19 16 15 15 15 15 15 14 14 14 13 14 16 17 18 19 20 21 21 21 22 24 26 27 27 27 27 28 29 28 28 28 27 26 24 23 23 26 27 28 27 26 25 26 28 30 32 34 36
28 23 18 20 24 27 30 33 37 37 34 33 29 24 24 22 16 14 16 15 9 4 2 1 5 6 3 1 1 8 11 12 15 17 18 20 19 17 15 15 16 17 16 15 14 14 15 16 19 20 21 22 24 25 25 26 26 26 28 31 31 31 30 30 31 32 32 32 31 30 29 28 27 26 28 31 32 32 30 29 30 31 32 34 34 36
31 28 24 23 27 32 34 33 34 34 33 33 33 32 32 32 26 14 10 17 18 10 5 3 6 12 10 6 4 8 10 11 13 16 18 19 18 16 16 16 17 16 14 13 14 16 18 21 23 25 26 27 28 29 30 30 30 31 34 36 35 34 33 33 33 34 35 35 35 34 33 33 32 31 31 32 34 35 35 34 34 35 36 36 36 37
33 28 25 24 27 30 30 30 31 31 33 34 34 35 35 35 36 25 12 14 18 17 16 8 7 17 17 11 11 11 10 12 16 20 21 20 18 17 17 18 17 15 15 15 17 19 23 27 29 30 30 31 32 34 34 34 34 36 38 38 37 35 34 34 34 34 36 37 37 37 36 36 36 36 36 36 35 36 36 35 35 36 38 38 39 39
35 29 26 23 21 24 27 29 30 29 32 36 36 38 37 35 37 33 23 18 16 20 21 9 6 19 15 6 9 8 6 11 18 20 18 16 16 17 19 20 19 18 19 20 22 25 27 29 32 35 36 37 38 39 39 39 39 40 40 39 37 36 35 34 34 34 35 36 36 37 38 38 38 39 40 40 39 39 38 37 37 38 39 40 41 42
34 29 27 17 7 10 17 20 26 31 34 37 39 39 38 36 34 32 30 23 15 22 25 13 12 24 17 6 8 8 9 14 16 15 13 13 17 20 21 21 21 22 24 26 28 28 29 32 37 41 42 42 41 41 40 40 39 39 37 37 36 36 35 34 33 32 33 34 35 36 37 38 39 40 41 41 42 43 42 41 41 41 42 43 43 44
35 34 33 23 12 10 13 17 28 37 36 35 37 37 37 36 34 33 32 24 20 28 31 25 26 30 22 14 12 12 14 15 14 13 15 16 18 20 21 22 24 27 29 31 32 34 36 39 41 41 40 39 38 37 36 35 34 33 33 33 34 34 33 32 31 31 31 32 33 34 34 35 37 40 42 43 44 44 45 45 45 45 46 46 47 48
33 36 38 37 33 31 32 31 31 33 33 35 37 37 36 36 35 34 31 30 33 33 31 36 40 36 34 29 19 16 19 19 18 18 19 21 24 27 29 30 32 35 36 37 38 39 40 39 37 36 36 35 34 33 32 31 31 30 30 30 30 31 31 30 29 29 30 31 31 32 32 32 33 36 39 43 45 45 46 46 47 48 49 50 51 53
30 34 38 40 41 41 41 37 32 29 31 35 37 38 37 35 35 36 35 38 40 31 28 40 43 39 44 41 30 29 31 29 29 29 30 34 37 38 39 39 39 40 41 41 41 38 35 34 34 35 34 31 30 29 28 28 29 29 29 29 29 30 30 30 29 29 29 31 32 33 33 33 33 34 35 38 42 44 46 47 48 49 51 52 54 55
29 31 34 37 38 39 39 37 35 33 30 30 32 35 37 37 37 40 41 42 42 36 37 44 42 41 47 45 39 41 40 36 36 38 39 41 41 40 40 40 41 41 41 40 37 34 34 35 36 34 30 28 28 27 27 28 28 29 29 30 31 31 32 32 32 32 32 32 33 35 35 35 35 35 36 37 38 40 43 45 48 50 51 53 55 56
29 29 30 32 34 36 36 36 36 35 32 30 30 30 33 35 37 40 41 42 43 44 46 46 44 46 48 44 42 41 40 40 40 39 40 41 42 43 42 41 40 40 39 38 35 35 38 39 36 30 27 27 27 28 28 29 30 31 32 33 34 34 35 36 36 36 36 36 36 37 37 38 38 38 38 39 39 39 41 43 45 47 49 50 51 52
30 29 28 30 31 32 34 36 35 34 33 32 31 30 31 33 35 38 41 42 44 46 46 45 48 50 48 46 44 43 43 44 41 41 43 43 43 43 42 40 39 38 39 39 40 41 42 38 33 29 29 30 31 32 32 33 34 35 36 37 37 38 38 38 39 39 40 40 40 40 40 41 42 42 43 43 42 42 43 44 45 46 47 48 48 49
32 30 28 29 28 29 34 34 32 32 30 29 32 35 37 39 40 42 43 43 44 44 43 44 49 51 50 48 45 44 46 45 42 43 43 41 41 41 42 43 43 43 44 43 43 43 41 37 34 33 34 36 36 36 36 37 37 36 37 37 38 39 39 40 40 40 41 41 42 42 43 43 44 45 46 46 46 46 46 47 48 48 49 50 50 50
33 32 30 28 24 25 29 28 28 24 18 22 36 44 44 44 44 44 43 43 43 43 43 45 48 48 47 47 46 46 46 43 41 40 38 38 41 44 46 48 48 48 46 42 40 39 38 38 37 37 37 37 37 37 36 37 37 37 37 37 37 37 38 38 38 39 40 40 41 42 43 44 45 46 46 47 49 50 51 51 52 52 52 53 53 53
32 32 31 26 21 20 22 22 21 14 11 25 43 45 43 44 44 44 44 45 44 43 43 44 45 44 43 44 44 43 41 39 38 37 38 42 46 48 49 49 47 46 43 40 38 36 36 36 36 35 34 34 35 35 35 36 37 37 37 36 35 35 36 37 38 39 40 41 41 42 42 43 44 44 44 45 47 49 51 52 53 54 55 55 56 56
31 30 28 25 22 19 18 16 11 7 20 41 46 40 39 40 39 39 41 41 40 39 39 40 42 42 41 41 40 39 38 38 38 41 44 48 49 50 49 47 45 43 41 38 36 34 32 32 32 31 31 32 32 33 33 34 35 35 35 35 37 38 38 39 39 39 39 40 40 40 40 40 41 42 42 42 43 45 47 49 50 52 53 54 55 55
32 31 28 27 25 20 15 14 9 7 22 37 39 40 44 41 37 37 38 38 38 37 38 41 42 42 41 40 40 41 41 43 44 47 48 49 49 48 47 45 43 39 37 36 34 32 30 30 30 30 30 31 31 32 32 33 34 35 37 38 39 40 39 38 38 37 36 36 37 37 37 38 39 40 40 40 41 42 44 46 47 48 50 52 52 54
35 34 34 33 31 26 20 20 19 15 19 29 36 42 45 41 37 36 36 38 40 38 39 42 43 44 44 45 46 46 46 48 49 49 48 46 45 44 42 40 37 34 34 34 33 33 32 31 31 30 30 30 31 32 34 35 37 39 39 39 39 38 37 37 36 36 36 36 36 36 36 37 37 38 38 38 39 41 42 44 45 46 47 49 50 52
35 35 36 33 31 30 25 20 16 12 19 36 44 43 42 40 36 31 29 36 42 39 37 39 39 39 41 43 44 45 44 44 43 42 41 39 37 37 36 35 35 34 34 34 34 34 33 32 32 31 32 34 34 36 38 39 40 40 40 39 39 38 38 39 39 39 40 40 40 39 39 39 39 38 38 37 38 39 41 42 44 44 45 46 47 48
33 35 36 33 28 29 26 19 14 12 23 40 45 42 41 39 34 26 21 31 45 42 33 32 32 31 32 32 33 34 33 33 34 33 34 35 35 35 35 34 34 34 34 35 35 35 34 34 34 35 37 38 38 39 40 40 41 41 41 41 41 42 42 43 43 43 43 43 44 44 44 44 44 43 43 41 41 40 41 42 43 44 45 45 46 47
32 33 33 33 31 31 29 24 21 23 30 37 38 38 35 29 24 17 13 25 42 36 25 25 26 25 26 27 28 30 31 33 34 34 35 35 35 34 34 33 34 34 34 35 36 36 37 38 39 40 40 40 40 41 42 43 44 44 45 45 46 46 47 47 47 47 47 47 47 47 47 48 48 48 48 48 47 46 45 45 44 45 45 46 46 47
33 33 32 33 34 33 30 24 21 25 32 35 36 36 29 17 16 21 20 28 35 28 22 24 23 22 24 26 27 29 31 31 32 32 32 32 32 33 34 35 36 36 36 36 37 39 42 43 43 42 41 41 43 44 45 46 47 48 49 49 49 50 51 52 52 52 52 51 51 51 50 50 50 51 51 51 51 50 49 49 48 47 47 47 47 47
35 33 32 33 33 33 33 29 21 21 30 34 33 34 29 20 21 26 29 32 32 30 31 31 27 24 24 24 25 27 28 30 31 32 33 34 35 36 37 38 38 38 38 39 40 42 44 44 44 43 43 43 45 46 47 49 50 51 51 51 52 52 54 54 54 55 55 55 55 55 54 54 53 52 52 52 52 52 51 50 50 49 49 49 48 48
37 33 30 34 35 32 31 26 17 20 34 38 34 34 34 31 30 32 33 33 34 36 37 35 32 30 28 29 30 31 32 33 34 34 35 36 37 38 39 40 41 41 41 42 42 43 44 44 44 44 44 46 47 48 50 51 52 53 52 52 52 52 53 53 54 54 55 55 56 57 56 56 55 53 52 51 51 51 51 50 50 50 49 49 49 49
35 33 31 35 37 33 30 28 26 32 41 42 40 41 41 38 36 35 33 33 34 35 35 35 35 34 33 33 33 32 33 34 34 35 36 37 38 39 39 40 40 41 42 42 42 42 43 45 46 47 47 48 48 48 50 52 54 55 53 52 52 53 54 54 54 54 54 54 55 55 56 56 55 54 53 52 51 50 50 49 49 50 49 48 48 49
34 37 35 36 37 35 34 36 37 38 38 38 40 43 41 37 35 33 32 31 31 31 32 32 32 31 31 31 31 31 32 32 33 34 35 36 37 37 38 39 40 40 41 42 42 44 46 48 50 51 52 51 50 50 50 52 54 55 55 54 54 55 56 56 57 57 56 55 55 55 55 55 55 54 53 52 52 51 50 50 50 50 50 49 49 49
37 38 37 36 35 34 34 35 35 33 33 34 36 37 36 35 34 33 32 30 29 29 30 29 29 29 28 28 29 30 31 31 33 34 35 35 36 36 37 38 39 40 42 44 46 49 51 52 54 55 56 55 53 52 52 53 54 55 56 56 56 56 56 57 57 57 57 56 55 53 53 53 52 52 51 51 51 50 50 50 51 51 51 51 51 50
35 35 34 33 31 30 30 33 34 33 33 34 35 36 36 35 33 33 33 31 29 29 29 29 28 27 27 29 30 31 32 33 33 34 34 35 36 37 39 41 43 45 47 49 51 53 54 56 56 57 58 57 55 54 54 54 55 56 56 57 57 58 57 57 56 56 56 55 54 52 52 51 51 50 49 49 48 48 48 49 50 50 51 52 52 51
34 34 33 32 31 32 31 32 33 32 32 34 34 35 36 35 34 33 32 31 30 29 28 27 27 28 29 30 31 32 33 33 34 35 37 39 41 44 46 47 48 50 50 51 52 53 54 55 56 56 57 57 57 57 57 57 57 57 57 58 58 59 59 58 57 57 56 55 54 53 52 52 52 51 50 49 49 49 48 49 49 50 50 51 51 51
34 34 34 33 33 34 34 34 33 32 31 31 32 33 34 34 33 31 29 29 28 27 27 27 28 29 30 31 33 34 36 37 40 42 43 44 45 46 47 48 49 50 51 51 51 52 53 55 56 57 58 58 59 59 59 59 59 59 59 59 59 60 60 59 58 57 56 55 55 54 53 53 53 53 52 52 51 51 50 50 50 50 49 49 49 48
35 35 35 34 33 35 35 35 35 34 32 30 30 30 31 31 31 30 29 29 29 29 29 30 31 33 35 36 38 40 41 43 44 44 44 45 45 46 48 49 50 51 52 52 53 54 55 56 57 59 59 59 60 60 60 60 60 59 59 59 60 61 61 60 59 58 57 56 55 54 54 53 53 54 53 53 53 53 52 53 52 50 49 47 46 45
38 38 37 37 37 37 35 33 32 32 30 29 28 28 29 30 31 31 31 31 32 33 33 34 36 37 38 40 41 42 42 43 43 44 45 46 47 48 50 51 52 53 53 54 55 56 56 57 58 59 59 60 60 60 61 60 60 59 59 59 60 61 61 61 60 60 59 58 57 56 55 54 54 53 53 54 55 54 54 55 54 51 49 46 43 42
Wind_Direction
198 200 203 206 208 210 212 214 217 225 231 229 223 221 223 225 226 225 222 228 235 241 247 251 255 250 238 236 240 244 251 254 255 257 258 260 261 261 261 260 257 247 219 215 228 229 235 241 245 250 254 258 261 263 264 264 266 266 265 266 266 266 267 269 273 273 271 269 269 269 268 269 268 268 269 271 273 274 273 273 274 277 281 283 285 287
201 206 208 209 212 212 212 212 212 218 226 225 218 218 220 221 225 226 227 232 240 248 253 258 260 255 250 245 239 239 247 254 260 264 264 265 264 263 262 260 257 250 233 227 228 227 233 236 239 245 250 255 261 263 264 263 262 260 260 263 264 265 267 271 273 271 270 269 267 265 263 263 264 265 269 270 271 271 271 273 276 280 283 286 287 287
204 209 206 205 209 208 207 210 210 210 213 212 209 214 217 219 222 224 229 236 243 255 260 264 265 261 259 256 246 242 247 251 255 259 264 268 269 269 268 262 254 248 239 235 234 233 236 238 242 247 251 255 257 257 259 260 259 259 260 261 261 263 266 266 266 267 267 265 263 262 262 262 264 266 268 269 270 271 273 277 279 281 283 284 284 283
205 206 202 204 208 207 206 207 207 207 209 209 209 212 213 217 219 220 230 240 249 261 267 273 275 266 260 259 252 247 250 252 255 259 263 265 265 264 262 258 250 244 239 237 237 236 239 242 246 252 254 254 252 252 255 256 257 257 255 256 257 259 260 260 260 260 259 259 261 264 265 265 266 267 267 268 269 272 277 279 279 279 279 277 275 275
212 206 202 205 206 205 206 206 206 207 210 213 215 215 216 220 225 232 241 251 262 271 275 283 287 277 268 267 260 249 248 253 257 260 263 264 261 255 251 248 243 238 234 233 235 238 243 247 250 254 257 258 258 257 255 252 249 247 248 254 257 257 257 256 256 255 255 257 260 264 266 267 268 267 266 267 269 271 272 270 270 271 270 269 269 270
215 213 208 207 207 206 205 208 209 209 213 218 221 222 223 227 235 244 250 261 275 280 281 289 299 283 271 269 265 253 242 247 256 261 263 263 255 245 239 236 233 235 238 239 242 247 251 255 256 256 256 256 256 254 249 244 241 243 248 255 256 254 252 252 253 254 257 259 261 264 266 268 268 267 267 268 266 265 263 262 263 265 266 269 270 271
210 212 211 208 209 209 206 208 210 211 215 221 227 229 231 237 243 251 258 266 275 275 279 285 289 281 276 269 265 267 262 255 257 262 261 257 255 249 240 232 232 240 250 253 253 254 255 258 258 253 249 247 246 245 244 244 245 247 250 252 251 250 249 250 252 255 259 262 264 266 267 267 268 270 270 266 262 261 262 264 265 267 269 271 274 275
209 208 208 205 207 210 208 207 208 210 214 220 228 231 235 243 247 255 261 264 265 267 273 274 270 280 279 273 271 273 267 252 255 268 272 264 259 258 252 241 240 245 254 257 255 253 255 258 258 251 245 244 245 246 246 247 247 246 247 249 249 247 247 248 252 256 261 264 266 267 267 268 270 272 268 261 260 262 265 269 271 273 273 274 275 277
210 209 210 209 207 210 210 208 208 209 211 218 225 230 236 245 250 255 259 258 264 273 272 269 267 268 273 274 278 278 272 268 275 281 281 275 259 248 245 241 241 243 246 246 243 243 247 249 250 248 245 245 246 246 246 245 243 244 245 246 245 241 240 245 251 257 261 265 266 266 268 269 270 268 264 262 263 266 269 271 272 272 272 272 273 275
214 211 211 212 211 213 211 209 211 212 215 220 226 235 241 246 249 248 250 254 266 272 266 268 264 253 273 276 276 281 283 281 279 273 256 243 231 221 222 224 225 227 230 229 227 226 229 234 240 245 247 248 246 244 243 242 241 242 241 241 241 238 239 244 249 254 259 262 264 264 266 266 266 266 265 267 269 271 272 272 272 271 271 272 274 276
217 213 211 211 211 212 210 209 212 214 219 225 228 231 232 234 237 238 246 256 276 275 259 260 251 236 271 289 284 281 280 268 252 236 208 200 196 194 202 208 209 213 216 219 223 224 229 243 252 253 252 249 243 238 238 239 238 236 235 235 236 237 240 243 246 250 253 256 259 260 261 263 264 265 267 270 273 273 274 275 275 274 275 276 278 280
214 212 210 210 210 208 206 205 207 212 214 214 217 215 209 209 220 237 247 240 247 265 242 243 241 225 226 267 302 164 165 210 238 208 190 183 184 193 202 206 209 213 219 225 234 242 253 265 264 256 255 253 244 237 234 233 233 232 232 234 235 237 241 244 247 250 250 251 254 256 259 262 264 265 268 270 271 272 274 277 277 277 277 278 279 280
209 212 210 209 211 208 203 197 193 199 204 205 205 195 186 160 148 245 250 217 233 244 229 227 233 231 241 257 265 232 235 258 241 201 192 192 194 203 208 214 219 225 236 248 257 263 267 270 263 256 258 259 251 243 236 232 233 237 242 245 248 251 251 252 253 252 249 248 249 252 256 261 264 267 269 269 269 271 273 275 275 276 276 275 277 280
201 212 213 209 210 208 206 201 196 197 201 206 210 200 190 151 95 253 263 287 264 246 221 223 239 258 262 271 273 260 253 246 231 209 200 199 200 210 218 226 234 244 256 265 269 272 274 275 272 270 271 269 263 255 248 244 247 254 259 262 265 265 264 263 260 257 253 250 250 253 257 262 265 266 268 269 270 271 272 273 273 273 273 273 276 281
196 209 215 210 209 210 210 211 212 217 218 219 221 219 217 208 187 212 220 214 253 241 202 208 227 254 230 136 75 47 249 233 223 212 207 212 220 226 230 235 243 250 256 263 268 275 282 286 289 282 273 267 264 262 261 263 271 277 280 280 277 272 267 263 261 257 255 253 254 259 262 264 266 266 268 271 272 272 271 271 271 271 272 273 276 279
203 213 217 212 212 214 213 215 218 221 223 223 221 221 224 224 222 223 225 222 217 25 228 216 229 235 210 182 137 88 72 78 175 205 210 221 229 221 220 227 236 243 249 260 269 275 279 276 274 269 267 272 272 280 288 294 301 301 298 293 284 276 270 265 261 257 254 252 255 259 262 264 265 267 270 271 271 271 270 269 270 271 272 274 276 278
204 213 216 210 211 213 212 214 215 214 216 217 215 217 220 222 225 229 249 264 266 296 259 231 240 247 246 248 241 225 237 245 207 200 199 201 210 213 219 228 238 246 254 262 265 264 259 248 245 248 268 293 301 305 304 301 301 298 294 289 278 270 268 268 265 262 258 255 253 256 259 262 264 267 269 269 270 271 270 270 272 275 277 279 281 282
208 209 211 210 209 210 210 211 215 218 221 219 217 220 220 220 226 224 223 346 74 272 261 240 245 253 252 254 255 244 237 233 225 218 212 212 221 228 231 236 243 247 250 252 249 242 234 232 241 254 270 287 298 303 301 295 291 289 287 284 277 269 263 262 263 263 263 259 254 251 253 259 264 267 268 270 272 273 273 275 278 281 283 286 288 289
215 207 209 211 209 211 213 212 213 218 223 225 226 223 215 210 213 206 199 195 155 233 281 255 248 255 250 245 247 229 203 207 220 231 234 234 234 234 236 239 241 239 237 238 238 237 236 239 248 263 279 289 297 302 301 297 290 286 284 281 277 273 266 263 261 260 262 263 260 254 251 253 261 267 270 272 275 276 279 283 285 287 289 292 293 294
217 211 209 210 208 208 210 211 213 214 214 218 222 220 214 214 211 204 207 209 181 194 270 287 270 264 260 257 249 229 216 224 236 238 234 232 232 231 231 233 235 236 237 239 244 248 252 257 262 270 281 290 298 302 301 300 294 287 282 278 275 273 270 268 265 264 263 264 265 263 256 250 252 261 267 270 273 277 281 285 287 288 291 292 294 295
218 216 215 209 203 205 210 213 217 218 214 213 215 213 211 211 206 208 220 221 214 194 180 261 284 261 240 7 178 189 196 214 230 233 227 223 225 225 224 227 230 233 237 242 251 262 269 274 274 276 283 290 297 301 300 299 295 288 284 281 278 274 271 271 270 270 270 269 268 268 264 257 251 253 259 265 270 274 278 281 284 286 287 289 292 293
217 215 215 208 202 207 213 217 221 223 223 225 226 225 222 217 208 201 216 221 219 222 210 199 274 267 258 264 241 191 191 212 233 238 230 220 219 221 223 225 226 231 241 254 269 279 285 286 284 282 285 288 291 294 296 296 293 291 289 288 284 279 276 275 273 273 274 274 273 272 270 266 260 255 254 259 265 270 274 278 280 282 284 285 288 288
217 215 215 215 216 217 218 221 223 222 225 228 231 233 230 223 216 209 207 215 212 224 236 232 267 272 269 262 251 239 231 232 232 228 223 219 219 222 227 230 234 243 255 267 275 281 287 291 290 288 287 287 288 291 295 296 295 294 293 292 289 287 284 281 278 276 274 274 275 275 274 272 269 265 261 259 260 264 268 272 276 278 280 281 282 282
216 217 214 212 220 221 218 222 225 223 224 224 226 230 228 224 222 219 223 229 217 220 229 218 251 261 262 254 242 240 216 206 209 209 208 214 224 227 231 235 240 248 257 266 273 278 283 287 290 291 290 290 290 291 293 293 292 292 292 292 292 291 289 285 282 277 274 272 273 274 275 275 274 273 271 267 264 263 264 265 268 270 273 275 277 278
213 213 209 196 186 213 215 223 226 222 222 222 224 226 226 227 225 222 226 231 230 233 228 211 237 252 253 232 209 197 180 183 189 197 208 222 232 233 235 241 249 256 260 262 264 267 270 275 282 286 287 287 287 287 288 288 289 289 290 291 290 290 290 289 287 284 280 278 276 275 275 275 274 274 273 271 269 266 264 263 264 265 267 270 273 275
216 215 212 200 182 193 204 212 218 217 215 218 222 224 227 227 224 223 225 223 230 240 231 221 236 247 249 240 219 201 197 194 191 205 221 229 232 234 238 245 254 258 257 255 256 262 271 279 285 286 287 288 289 290 290 290 289 288 288 288 289 289 290 290 291 289 287 285 284 284 282 279 276 273 272 271 270 269 267 265 265 266 268 269 271 273
219 221 222 219 218 222 223 222 223 221 216 219 224 225 226 227 227 227 223 220 230 238 235 234 241 247 250 248 234 216 218 223 230 235 235 238 247 255 260 263 264 265 266 268 272 279 284 288 290 292 293 294 293 293 292 290 287 285 284 285 288 290 291 292 291 290 290 290 291 293 293 290 285 280 276 274 273 272 271 270 270 270 271 272 274 276
217 221 226 228 231 235 237 235 237 236 230 229 230 228 227 227 227 226 224 228 233 234 239 245 244 247 253 251 247 248 251 253 255 257 258 260 265 271 274 275 277 278 280 283 287 289 289 291 295 299 297 291 287 285 283 281 279 280 282 285 289 291 292 293 293 292 292 293 294 296 297 296 294 291 286 281 278 276 275 275 275 275 276 276 278 280
217 221 225 229 233 237 240 240 240 241 240 239 237 235 234 231 229 229 231 236 237 233 243 252 250 252 258 258 258 262 264 263 263 265 267 270 273 275 277 280 283 286 288 289 289 289 290 294 298 296 288 280 278 277 274 273 273 275 280 284 287 290 290 291 291 291 291 292 293 294 294 294 294 293 291 289 286 283 280 279 279 279 279 280 281 282
217 223 227 229 232 236 238 239 241 241 241 240 238 237 237 236 236 237 239 242 242 241 248 254 254 257 262 263 264 268 269 266 265 267 269 273 277 279 282 284 286 289 290 290 289 290 295 298 294 284 274 272 275 275 274 273 274 275 277 279 280 282 284 286 286 287 288 288 289 290 290 290 290 290 289 288 287 286 284 283 282 281 281 281 282 283
219 223 227 229 232 234 236 238 240 239 239 239 238 236 236 235 236 238 240 242 241 243 248 251 254 259 262 262 264 267 267 265 266 270 274 277 280 283 286 288 289 290 290 289 289 292 296 296 289 280 275 278 281 282 281 280 279 279 279 279 279 279 280 281 282 283 283 284 284 284 284 285 286 287 287 285 284 283 282 281 281 281 281 281 282 283
220 223 226 228 229 231 233 235 234 232 231 229 230 233 234 233 234 237 239 240 241 243 248 248 251 257 262 262 264 265 265 267 270 273 276 279 282 285 288 290 291 292 291 290 289 290 291 290 289 287 286 287 289 289 288 288 287 286 284 283 282 281 282 282 282 281 281 280 279 279 279 280 280 282 283 283 283 283 281 280 279 279 280 280 281 281
218 221 223 224 223 227 230 229 225 222 218 223 231 235 236 237 239 240 239 241 244 245 245 247 252 259 264 264 265 266 267 270 274 274 276 279 283 286 287 288 291 293 293 293 292 291 289 287 289 290 289 289 290 291 292 293 292 292 291 291 290 289 288 287 286 285 283 281 281 280 280 280 279 280 280 281 281 281 281 281 280 280 280 281 281 282
214 217 219 218 218 224 226 222 218 210 210 234 241 241 240 242 243 241 242 247 248 246 247 252 258 263 263 263 265 268 269 270 272 275 278 280 282 284 285 286 288 290 292 294 294 292 289 287 288 289 289 290 291 291 292 292 292 294 295 296 296 295 293 293 291 290 290 289 289 287 286 285 284 283 283 282 281 280 280 280 280 280 281 281 282 282
214 215 216 217 219 225 225 218 209 214 232 239 242 242 240 242 241 241 246 248 246 246 249 253 257 261 262 263 265 266 268 269 271 274 277 279 281 282 283 284 286 287 288 289 290 290 289 288 288 289 289 290 291 291 291 291 290 291 292 294 295 296 296 297 296 296 296 296 295 294 292 291 289 289 288 286 284 282 281 281 281 281 282 282 282 282
223 220 224 229 230 231 227 215 209 237 242 241 244 244 242 240 236 239 246 245 242 246 250 252 256 259 260 261 261 263 266 269 271 273 275 277 278 279 281 283 284 285 285 285 286 286 286 287 288 288 289 289 290 291 290 289 289 290 292 295 297 298 300 300 300 300 300 299 299 299 298 296 294 294 293 291 289 287 286 285 285 284 284 283 283 283
236 234 236 237 237 237 235 234 241 254 255 248 245 245 246 247 245 247 253 252 249 252 255 256 257 257 257 258 260 262 265 268 270 271 272 274 274 276 278 280 282 283 283 284 286 286 287 288 288 288 289 289 290 291 290 291 292 293 296 298 299 300 300 300 300 299 298 298 299 299 300 299 298 297 296 295 294 292 290 290 289 288 286 285 283 283
239 239 237 236 238 239 238 241 247 250 253 250 247 248 255 259 260 260 258 257 258 258 257 256 256 256 257 258 259 261 263 264 266 268 269 271 272 273 275 277 280 282 283 284 286 286 287 288 288 289 290 291 293 293 293 294 295 296 299 300 301 301 300 299 299 298 298 298 299 299 300 300 300 299 298 297 296 295 293 292 291 290 289 288 286 284
233 233 231 229 231 231 227 227 228 230 247 253 255 259 262 262 263 260 252 256 261 261 256 254 255 256 256 256 258 259 260 261 263 265 266 269 271 274 277 279 281 282 282 283 284 284 285 286 289 292 294 295 295 295 295 296 297 298 300 300 301 301 300 299 299 298 298 299 299 300 300 300 300 300 299 299 298 297 297 296 295 293 292 290 289 287
227 225 224 221 222 223 222 225 230 235 245 254 259 262 262 262 257 240 224 253 262 262 258 257 257 255 255 255 257 257 258 261 263 265 267 269 271 274 276 277 278 278 279 280 281 282 284 287 290 293 295 296 297 297 298 298 299 300 301 302 302 302 301 301 301 301 301 301 301 301 301 301 301 300 300 300 299 298 298 298 297 297 296 293 291 288
224 225 225 223 223 225 226 229 233 235 241 250 255 255 257 252 223 212 225 253 263 266 269 267 264 260 257 255 254 255 257 259 261 264 267 269 271 273 274 275 276 277 277 279 280 283 286 289 292 294 296 297 298 299 300 301 302 303 305 306 306 306 305 305 305 304 304 304 304 303 303 303 303 302 301 301 300 299 298 297 296 296 296 296 294 291
221 224 226 226 226 227 231 235 241 242 241 244 247 249 248 231 211 224 248 262 265 269 272 272 270 265 259 255 253 253 256 258 261 264 265 266 268 269 271 272 274 275 277 279 282 284 287 289 291 293 296 298 300 301 302 302 303 304 306 307 308 308 308 308 308 308 307 307 307 306 306 305 304 304 303 301 300 299 298 297 296 295 294 294 294 293
227 223 220 223 226 227 230 232 234 241 243 241 241 246 248 244 241 250 260 264 266 270 272 272 272 269 265 263 261 260 261 263 265 264 264 264 266 266 267 269 271 273 276 278 281 283 285 287 290 292 295 298 301 303 303 304 304 305 307 308 308 308 308 309 309 309 309 309 309 308 308 307 306 305 304 302 300 298 296 295 293 292 291 291 291 291
231 224 220 225 228 223 221 226 236 246 250 250 250 251 252 254 257 260 260 262 267 269 270 271 271 270 269 268 267 266 266 265 265 264 264 265 266 267 269 271 273 275 277 279 281 283 285 288 290 293 296 299 301 303 304 304 304 305 306 307 307 307 307 307 307 307 308 308 308 309 309 308 308 307 306 304 301 299 296 294 291 289 288 286 286 286
232 233 234 238 238 235 235 241 249 254 257 258 259 258 259 261 263 264 264 264 265 265 265 266 267 267 269 269 268 268 267 265 264 264 264 265 267 269 271 273 275 278 280 281 284 286 288 290 291 293 296 299 301 302 302 303 303 303 304 305 305 305 305 305 305 305 305 305 305 306 307 307 308 308 307 305 303 300 297 294 291 288 286 283 282 281
236 239 241 242 243 245 247 249 252 255 257 259 261 264 266 267 267 268 269 268 267 266 267 268 268 269 268 266 265 264 264 264 265 265 266 268 269 270 272 274 276 279 281 283 286 287 289 290 291 292 294 296 299 300 300 301 302 302 302 303 303 304 304 304 304 304 304 303 303 303 304 304 305 306 306 305 304 302 299 296 293 290 287 285 282 279
237 239 240 240 240 243 247 250 252 253 254 256 259 262 264 266 268 269 269 270 270 270 270 270 269 266 263 261 261 261 261 263 264 265 268 270 272 274 276 277 279 281 283 285 286 288 289 289 290 291 292 294 297 299 300 300 301 302 302 302 303 303 303 303 303 303 303 303 301 300 299 300 301 303 304 304 304 304 304 302 299 296 293 289 286 282
239 239 239 239 241 244 248 252 255 256 255 255 257 259 261 264 266 267 268 269 269 269 268 266 262 260 259 260 259 259 259 262 263 266 270 273 276 278 280 281 283 284 286 287 288 289 290 291 292 293 293 294 296 298 299 300 300 301 301 302 302 302 302 302 302 303 303 302 301 299 297 296 297 298 300 301 302 304 306 306 305 301 297 293 289 285
241 240 240 240 242 243 244 248 251 252 252 252 253 255 258 261 263 264 265 265 264 263 262 259 257 256 257 258 259 261 264 267 270 273 276 277 279 280 282 284 285 287 288 290 291 292 293 294 294 295 295 296 297 298 298 299 299 300 300 301 301 300 300 300 300 301 301 301 300 299 297 295 294 294 295 296 298 300 302 305 306 304 300 295 292 289
239 240 242 241 239 240 244 248 249 249 251 253 255 256 256 257 258 258 258 258 258 257 256 255 256 258 260 262 265 267 270 273 275 277 278 280 282 283 285 286 287 288 289 291 292 292 293 294 295 295 296 297 297 298 298 298 299 299 300 300 299 299 298 299 299 299 300 300 299 297 296 294 293 292 292 292 293 295 297 299 302 303 301 298 295 293
242 243 245 245 245 246 249 249 246 247 249 252 255 256 256 255 255 255 254 254 254 255 256 257 258 261 263 266 268 270 272 274 276 277 279 282 284 285 286 287 288 289 290 291 291 292 293 293 294 295 295 296 297 297 298 298 299 299 299 299 299 298 298 298 298 298 298 298 297 296 295 293 292 292 293 292 291 292 294 295 298 302 302 299 295 294
Height
3144 3145 3145 3146 3148 3150 3152 3154 3155 3156 3158 3159 3160 3160 3160 3161 3161 3162 3163 3163 3163 3163 3163 3163 3163 3163 3164 3165 3166 3167 3165 3165 3166 3167 3168 3169 3169 3169 3169 3170 3170 3171 3171 3172 3171 3171 3172 3172 3172 3172 3172 3172 3173 3173 3174 3174 3175 3176 3176 3176 3176 3176 3176 3176 3176 3176 3177 3177 3177 3177 3177 3178 3178 3177 3177 3177 3177 3177 3176 3176 3176 3176 3176 3176 3176 3175
3143 3143 3144 3147 3149 3151 3152 3153 3154 3155 3157 3158 3159 3159 3159 3160 3160 3161 3161 3162 3162 3162 3162 3162 3161 3161 3163 3164 3164 3165 3163 3163 3165 3165 3165 3166 3167 3167 3168 3168 3169 3169 3170 3170 3170 3170 3170 3170 3170 3170 3170 3171 3171 3172 3172 3173 3173 3174 3174 3175 3175 3175 3174 3174 3174 3174 3175 3175 3175 3174 3175 3175 3175 3175 3175 3175 3175 3174 3174 3174 3174 3174 3174 3173 3173 3173
3141 3142 3145 3147 3148 3149 3150 3151 3153 3155 3156 3157 3158 3158 3159 3159 3159 3160 3160 3161 3161 3161 3161 3161 3160 3159 3160 3161 3162 3163 3162 3162 3163 3163 3164 3165 3165 3166 3166 3166 3167 3167 3168 3169 3169 3169 3168 3169 3168 3169 3169 3169 3170 3170 3170 3171 3171 3172 3172 3173 3173 3173 3173 3173 3172 3172 3173 3172 3172 3172 3172 3172 3172 3172 3172 3172 3172 3172 3172 3172 3172 3172 3172 3171 3171 3170
3139 3142 3144 3145 3146 3147 3148 3150 3151 3153 3154 3156 3156 3157 3158 3158 3159 3159 3159 3160 3160 3160 3160 3160 3158 3156 3158 3159 3159 3160 3160 3160 3161 3161 3162 3163 3163 3164 3164 3164 3165 3166 3167 3167 3167 3167 3166 3167 3167 3167 3168 3168 3168 3168 3169 3169 3170 3170 3171 3171 3171 3171 3171 3171 3170 3170 3170 3170 3169 3169 3169 3169 3169 3169 3170 3169 3170 3170 3170 3170 3170 3170 3169 3169 3168 3168
3139 3141 3142 3143 3144 3146 3147 3148 3150 3151 3153 3154 3155 3156 3157 3157 3158 3158 3158 3159 3159 3159 3159 3159 3157 3154 3154 3156 3157 3158 3159 3159 3159 3160 3161 3161 3161 3162 3162 3162 3163 3164 3164 3164 3165 3165 3165 3165 3165 3165 3166 3166 3166 3167 3167 3167 3167 3168 3168 3169 3169 3169 3169 3169 3168 3168 3168 3167 3167 3167 3167 3167 3167 3167 3167 3167 3168 3168 3167 3167 3167 3166 3166 3165 3165 3165
3139 3140 3140 3142 3143 3144 3146 3147 3148 3150 3152 3153 3154 3155 3156 3157 3157 3157 3158 3158 3158 3158 3158 3158 3157 3153 3151 3154 3155 3155 3157 3157 3158 3158 3159 3159 3159 3159 3160 3161 3161 3162 3162 3163 3163 3163 3163 3163 3163 3164 3164 3164 3164 3164 3164 3165 3165 3166 3166 3167 3167 3167 3167 3167 3166 3166 3166 3165 3165 3165 3165 3165 3165 3165 3165 3165 3165 3165 3164 3164 3164 3163 3163 3162 3162 3162
3137 3138 3139 3140 3142 3143 3144 3146 3147 3149 3150 3152 3152 3153 3155 3155 3156 3156 3157 3157 3157 3157 3157 3158 3158 3154 3149 3151 3153 3154 3155 3156 3156 3157 3157 3157 3157 3157 3158 3159 3160 3160 3160 3161 3161 3161 3161 3161 3161 3161 3161 3161 3161 3162 3162 3162 3163 3164 3164 3165 3165 3165 3165 3165 3164 3164 3164 3164 3163 3163 3163 3163 3163 3163 3164 3164 3163 3162 3162 3161 3161 3161 3160 3160 3159 3159
3134 3136 3138 3139 3141 3142 3143 3144 3146 3147 3149 3150 3151 3152 3154 3154 3155 3155 3156 3156 3156 3156 3156 3156 3158 3156 3148 3147 3150 3152 3154 3155 3155 3155 3155 3155 3155 3156 3157 3157 3158 3158 3159 3159 3159 3159 3159 3158 3158 3159 3159 3159 3159 3160 3160 3160 3161 3161 3162 3162 3163 3163 3163 3163 3162 3162 3162 3162 3161 3161 3161 3161 3161 3161 3162 3161 3160 3160 3159 3159 3159 3158 3158 3157 3157 3156
3133 3135 3137 3138 3139 3140 3141 3143 3145 3146 3148 3149 3150 3151 3152 3153 3154 3155 3155 3155 3155 3155 3155 3154 3157 3156 3148 3145 3148 3149 3151 3153 3153 3153 3153 3153 3154 3154 3154 3155 3156 3156 3156 3157 3157 3157 3157 3157 3157 3157 3157 3158 3158 3158 3158 3159 3159 3159 3160 3160 3160 3160 3160 3160 3160 3160 3160 3159 3159 3159 3158 3159 3159 3159 3159 3158 3158 3157 3157 3157 3156 3156 3155 3155 3154 3154
3133 3134 3136 3137 3138 3139 3140 3143 3144 3145 3147 3148 3150 3150 3152 3153 3153 3154 3154 3154 3155 3154 3153 3154 3155 3155 3147 3143 3146 3148 3149 3151 3151 3151 3151 3151 3152 3152 3152 3153 3153 3154 3154 3155 3155 3155 3155 3155 3155 3155 3156 3156 3156 3156 3156 3157 3157 3157 3158 3158 3158 3158 3158 3158 3158 3157 3157 3157 3156 3157 3156 3156 3157 3156 3156 3155 3155 3155 3154 3154 3154 3153 3152 3152 3151 3151
3131 3133 3134 3135 3136 3138 3140 3141 3142 3144 3146 3147 3148 3149 3151 3152 3152 3153 3153 3154 3155 3152 3151 3152 3153 3154 3149 3143 3144 3146 3147 3148 3149 3149 3150 3150 3150 3151 3151 3151 3151 3152 3152 3153 3153 3153 3154 3154 3154 3154 3154 3154 3154 3154 3154 3155 3155 3155 3156 3156 3156 3156 3156 3155 3155 3155 3155 3154 3154 3154 3154 3154 3154 3154 3153 3153 3152 3152 3151 3151 3151 3150 3150 3149 3149 3149
3129 3131 3132 3133 3134 3136 3138 3140 3141 3143 3144 3145 3147 3148 3150 3151 3152 3153 3152 3153 3154 3151 3149 3150 3150 3152 3149 3143 3143 3145 3146 3147 3148 3148 3148 3149 3149 3149 3150 3150 3150 3151 3151 3151 3151 3151 3152 3152 3153 3153 3153 3153 3152 3152 3152 3152 3153 3153 3154 3154 3154 3153 3153 3153 3153 3152 3152 3152 3152 3152 3152 3152 3151 3151 3150 3150 3150 3149 3149 3149 3148 3148 3147 3147 3147 3146
3128 3129 3130 3132 3133 3134 3136 3137 3139 3141 3142 3144 3145 3147 3149 3151 3152 3152 3152 3153 3151 3149 3148 3149 3150 3148 3143 3141 3143 3144 3145 3146 3147 3147 3147 3148 3148 3148 3148 3148 3149 3149 3149 3149 3149 3150 3150 3151 3151 3151 3151 3151 3151 3151 3151 3151 3151 3151 3152 3152 3152 3151 3151 3151 3150 3150 3150 3150 3150 3150 3150 3149 3149 3148 3148 3147 3147 3147 3146 3146 3146 3145 3145 3144 3144 3143
3126 3128 3128 3129 3130 3132 3133 3134 3136 3137 3140 3142 3143 3145 3146 3149 3151 3151 3152 3152 3149 3146 3147 3148 3149 3144 3139 3139 3140 3141 3141 3141 3143 3145 3146 3146 3147 3147 3147 3147 3147 3147 3147 3147 3148 3148 3149 3149 3149 3150 3150 3150 3150 3150 3150 3150 3150 3150 3150 3150 3150 3149 3149 3149 3149 3149 3149 3149 3148 3148 3147 3147 3146 3146 3145 3145 3144 3144 3144 3143 3143 3142 3142 3142 3141 3141
3122 3123 3123 3125 3127 3129 3131 3133 3134 3137 3139 3140 3142 3143 3143 3144 3146 3147 3148 3147 3145 3145 3146 3147 3147 3141 3137 3138 3138 3138 3138 3137 3140 3143 3145 3145 3146 3146 3146 3146 3146 3146 3146 3146 3146 3147 3147 3148 3148 3149 3149 3149 3149 3149 3149 3148 3149 3149 3149 3148 3148 3148 3147 3147 3147 3147 3147 3147 3146 3145 3145 3144 3144 3143 3142 3142 3142 3141 3141 3140 3140 3140 3139 3139 3138 3137
3118 3118 3119 3122 3125 3127 3130 3132 3134 3136 3138 3138 3140 3141 3141 3141 3142 3143 3144 3144 3144 3146 3145 3144 3141 3136 3136 3138 3137 3138 3138 3137 3139 3141 3143 3144 3144 3144 3144 3144 3144 3144 3144 3145 3145 3146 3146 3146 3147 3147 3147 3147 3147 3147 3147 3147 3147 3147 3147 3146 3146 3146 3145 3144 3144 3144 3144 3144 3143 3143 3142 3142 3141 3141 3140 3140 3139 3138 3138 3137 3137 3137 3136 3136 3135 3134
3115 3116 3118 3121 3123 3126 3129 3130 3132 3133 3134 3135 3136 3136 3138 3140 3141 3142 3143 3143 3145 3145 3140 3137 3135 3133 3135 3136 3136 3138 3138 3138 3140 3140 3141 3142 3141 3142 3142 3142 3142 3142 3143 3144 3144 3144 3145 3145 3145 3145 3145 3145 3145 3145 3145 3145 3145 3144 3144 3144 3143 3143 3143 3142 3142 3142 3141 3140 3140 3140 3139 3139 3138 3138 3137 3137 3136 3135 3135 3135 3135 3134 3133 3132 3131 3130
3112 3115 3117 3119 3121 3124 3126 3128 3130 3131 3131 3132 3133 3133 3136 3139 3140 3141 3142 3143 3146 3144 3137 3132 3131 3131 3133 3134 3134 3135 3135 3137 3138 3138 3140 3140 3140 3140 3140 3140 3140 3141 3142 3142 3143 3143 3143 3143 3143 3143 3142 3142 3142 3142 3142 3142 3141 3141 3141 3140 3140 3140 3139 3139 3139 3138 3138 3137 3136 3136 3135 3136 3135 3135 3135 3134 3133 3133 3132 3132 3132 3131 3130 3129 3128 3126
3111 3114 3116 3117 3119 3122 3124 3126 3127 3127 3128 3129 3130 3132 3135 3137 3137 3138 3140 3141 3143 3143 3136 3129 3128 3127 3128 3130 3132 3133 3133 3135 3136 3137 3137 3137 3138 3138 3138 3138 3139 3140 3141 3141 3141 3142 3142 3141 3141 3140 3140 3140 3139 3139 3139 3138 3138 3138 3137 3136 3136 3136 3136 3135 3135 3134 3134 3133 3132 3132 3131 3132 3132 3132 3132 3131 3131 3130 3130 3129 3128 3127 3126 3125 3123 3122
3109 3112 3113 3115 3117 3119 3121 3121 3120 3120 3123 3126 3128 3130 3132 3133 3134 3135 3137 3136 3137 3139 3137 3130 3126 3123 3123 3126 3129 3131 3132 3133 3134 3134 3134 3134 3135 3136 3136 3137 3138 3139 3139 3139 3139 3139 3139 3139 3138 3138 3137 3137 3137 3136 3136 3135 3135 3134 3133 3132 3132 3132 3131 3131 3131 3130 3130 3130 3129 3129 3128 3128 3128 3128 3128 3128 3127 3127 3127 3126 3125 3124 3122 3121 3119 3118
3107 3108 3110 3112 3114 3115 3115 3114 3114 3115 3119 3121 3124 3127 3128 3130 3132 3133 3134 3134 3133 3136 3136 3132 3125 3120 3121 3124 3126 3128 3130 3131 3131 3131 3131 3132 3133 3134 3135 3136 3136 3137 3137 3137 3137 3137 3136 3136 3135 3135 3134 3134 3134 3134 3133 3132 3132 3131 3130 3129 3129 3129 3128 3128 3128 3127 3127 3127 3126 3126 3126 3125 3123 3123 3123 3123 3123 3123 3123 3123 3121 3120 3118 3117 3116 3114
3103 3104 3106 3108 3109 3109 3109 3111 3113 3116 3118 3119 3120 3121 3122 3124 3127 3130 3131 3130 3131 3132 3133 3132 3124 3117 3120 3124 3125 3127 3129 3129 3129 3129 3130 3130 3131 3132 3133 3134 3134 3135 3135 3135 3135 3134 3134 3133 3132 3132 3132 3132 3131 3131 3130 3129 3128 3128 3127 3127 3127 3127 3127 3126 3126 3125 3124 3124 3123 3123 3122 3121 3120 3119 3118 3118 3118 3118 3118 3118 3117 3116 3114 3113 3112 3110
3100 3102 3103 3104 3105 3107 3109 3111 3112 3114 3116 3117 3118 3118 3119 3121 3121 3124 3125 3125 3129 3129 3129 3131 3125 3115 3117 3122 3122 3124 3126 3126 3127 3127 3127 3129 3130 3131 3131 3132 3132 3132 3132 3132 3131 3131 3130 3129 3128 3128 3129 3129 3128 3128 3128 3127 3126 3125 3124 3124 3124 3124 3124 3124 3123 3122 3121 3120 3120 3119 3118 3117 3117 3116 3114 3113 3113 3113 3113 3113 3112 3111 3110 3109 3107 3106
3097 3099 3100 3102 3104 3106 3108 3109 3110 3112 3113 3113 3113 3113 3115 3117 3118 3121 3123 3123 3126 3125 3125 3129 3124 3113 3114 3119 3120 3121 3123 3124 3124 3125 3126 3128 3128 3129 3130 3129 3130 3129 3129 3129 3128 3127 3127 3126 3126 3125 3125 3126 3125 3125 3125 3124 3123 3122 3121 3120 3119 3119 3119 3118 3118 3117 3116 3116 3115 3115 3114 3114 3113 3112 3111 3110 3109 3108 3108 3107 3106 3105 3104 3103 3101 3100
3092 3094 3096 3099 3103 3105 3107 3107 3106 3106 3106 3106 3107 3109 3112 3114 3118 3120 3121 3123 3123 3121 3122 3124 3118 3111 3114 3118 3118 3120 3122 3122 3123 3124 3126 3127 3127 3127 3128 3128 3128 3127 3126 3126 3125 3124 3124 3123 3123 3123 3122 3122 3122 3122 3122 3121 3119 3118 3117 3115 3114 3114 3113 3113 3113 3112 3111 3111 3110 3110 3110 3109 3109 3108 3107 3105 3104 3103 3102 3101 3100 3099 3097 3096 3095 3094
3089 3089 3090 3092 3095 3096 3096 3095 3093 3095 3099 3102 3104 3106 3109 3112 3114 3116 3119 3121 3118 3115 3116 3116 3111 3109 3114 3116 3117 3120 3121 3122 3123 3124 3124 3125 3125 3125 3126 3126 3125 3124 3122 3122 3122 3122 3121 3120 3120 3120 3119 3119 3118 3118 3117 3116 3115 3114 3113 3111 3110 3109 3109 3109 3108 3108 3107 3106 3105 3105 3104 3104 3103 3102 3101 3100 3099 3098 3097 3096 3095 3093 3092 3091 3090 3088
3086 3086 3086 3086 3086 3086 3087 3088 3089 3093 3098 3100 3101 3103 3106 3108 3111 3113 3116 3114 3111 3111 3110 3108 3108 3110 3111 3113 3115 3118 3119 3120 3121 3122 3122 3122 3122 3123 3123 3122 3121 3120 3119 3119 3120 3119 3118 3117 3117 3116 3116 3115 3114 3114 3113 3112 3111 3110 3109 3108 3107 3106 3105 3104 3104 3103 3103 3102 3101 3100 3099 3098 3097 3096 3096 3095 3094 3093 3092 3091 3090 3089 3087 3086 3084 3083
3082 3082 3083 3083 3084 3085 3088 3090 3092 3094 3096 3097 3098 3100 3102 3105 3107 3109 3108 3106 3107 3109 3104 3102 3108 3108 3106 3109 3113 3114 3115 3117 3118 3118 3118 3118 3118 3118 3118 3117 3116 3115 3116 3116 3115 3115 3114 3114 3113 3113 3112 3111 3110 3110 3109 3108 3107 3106 3105 3104 3103 3102 3101 3100 3100 3099 3099 3098 3097 3096 3095 3094 3093 3091 3090 3089 3088 3087 3087 3086 3085 3083 3082 3080 3079 3078
3079 3079 3080 3082 3083 3084 3087 3088 3090 3091 3093 3095 3096 3097 3099 3101 3102 3102 3102 3102 3104 3103 3099 3100 3106 3104 3101 3106 3110 3112 3113 3113 3113 3113 3113 3113 3113 3113 3113 3112 3111 3111 3111 3111 3111 3110 3110 3110 3109 3109 3108 3107 3106 3106 3106 3105 3104 3104 3103 3101 3100 3099 3097 3096 3096 3095 3094 3093 3092 3091 3090 3089 3088 3087 3086 3084 3083 3082 3081 3080 3078 3077 3076 3074 3073 3072
3076 3077 3078 3079 3080 3082 3083 3085 3086 3088 3089 3091 3092 3094 3096 3097 3098 3097 3098 3099 3100 3099 3097 3100 3101 3098 3099 3103 3105 3108 3110 3108 3107 3108 3108 3108 3107 3106 3107 3107 3107 3107 3107 3106 3106 3106 3105 3105 3104 3104 3104 3103 3102 3102 3102 3102 3101 3100 3099 3098 3097 3096 3094 3093 3092 3091 3090 3089 3088 3087 3085 3084 3083 3082 3081 3080 3079 3077 3076 3074 3073 3071 3070 3069 3067 3066
3073 3074 3075 3077 3078 3078 3079 3081 3082 3084 3085 3087 3088 3090 3092 3093 3093 3092 3092 3094 3095 3095 3096 3099 3097 3094 3095 3099 3102 3105 3104 3102 3102 3103 3104 3104 3102 3101 3101 3102 3103 3103 3103 3103 3102 3101 3100 3100 3099 3099 3099 3099 3098 3097 3097 3097 3096 3095 3095 3094 3093 3092 3091 3089 3088 3087 3086 3085 3083 3082 3081 3079 3078 3077 3075 3074 3073 3072 3071 3069 3068 3066 3065 3063 3062 3060
3071 3072 3073 3074 3075 3074 3076 3077 3078 3079 3081 3082 3083 3084 3085 3085 3085 3086 3087 3089 3091 3092 3094 3096 3092 3089 3091 3095 3099 3100 3098 3098 3099 3100 3100 3099 3098 3097 3097 3096 3096 3097 3098 3098 3098 3097 3096 3095 3095 3095 3094 3094 3093 3092 3091 3091 3090 3090 3089 3089 3088 3087 3086 3085 3084 3083 3081 3080 3079 3077 3076 3074 3073 3072 3070 3069 3068 3066 3065 3064 3062 3061 3059 3058 3056 3054
3068 3068 3070 3071 3071 3071 3073 3074 3075 3077 3078 3076 3075 3076 3078 3079 3080 3081 3082 3085 3087 3088 3090 3089 3087 3088 3091 3092 3094 3094 3095 3096 3095 3095 3095 3095 3093 3093 3092 3091 3091 3090 3090 3091 3092 3092 3092 3091 3090 3090 3089 3089 3088 3087 3086 3085 3084 3084 3083 3083 3082 3081 3080 3079 3078 3077 3076 3075 3074 3073 3071 3070 3068 3067 3066 3064 3063 3061 3059 3057 3056 3054 3053 3051 3049 3047
3064 3065 3067 3068 3069 3070 3070 3071 3074 3075 3072 3069 3069 3072 3075 3076 3076 3076 3078 3080 3082 3083 3084 3084 3084 3087 3089 3089 3090 3091 3092 3092 3091 3090 3091 3090 3089 3088 3087 3087 3087 3086 3085 3085 3085 3086 3086 3086 3086 3085 3084 3084 3083 3082 3081 3080 3079 3078 3077 3077 3076 3075 3074 3074 3073 3072 3070 3070 3068 3067 3065 3064 3062 3061 3059 3058 3056 3055 3053 3051 3049 3048 3045 3043 3042 3040
3061 3063 3064 3065 3066 3067 3068 3070 3071 3067 3063 3064 3067 3069 3072 3073 3073 3074 3074 3076 3079 3080 3081 3081 3081 3082 3085 3086 3087 3087 3087 3087 3087 3086 3086 3085 3084 3083 3082 3082 3083 3082 3082 3081 3080 3080 3080 3081 3081 3080 3080 3079 3078 3078 3077 3076 3075 3074 3073 3072 3071 3070 3069 3068 3067 3066 3064 3063 3062 3060 3058 3057 3055 3053 3052 3051 3049 3047 3045 3044 3042 3040 3038 3036 3034 3032
3058 3059 3060 3062 3064 3065 3065 3065 3064 3060 3060 3063 3064 3064 3067 3068 3069 3070 3070 3071 3075 3076 3077 3077 3077 3078 3082 3083 3082 3082 3082 3082 3082 3082 3082 3081 3080 3079 3078 3078 3078 3078 3077 3077 3077 3076 3076 3076 3076 3076 3075 3075 3074 3073 3072 3071 3071 3070 3069 3068 3067 3065 3064 3062 3061 3060 3058 3057 3056 3054 3053 3050 3048 3047 3045 3043 3042 3040 3038 3037 3035 3033 3031 3029 3027 3025
3053 3054 3056 3058 3059 3060 3060 3059 3058 3059 3059 3059 3059 3059 3060 3062 3064 3067 3066 3066 3070 3072 3072 3072 3073 3075 3078 3078 3078 3079 3079 3078 3077 3077 3077 3076 3076 3075 3074 3074 3074 3073 3073 3073 3072 3072 3072 3072 3072 3071 3071 3070 3069 3068 3067 3067 3066 3065 3064 3063 3062 3061 3059 3057 3056 3055 3053 3052 3050 3049 3047 3045 3043 3041 3039 3037 3035 3034 3032 3030 3028 3027 3025 3022 3021 3019
3049 3050 3052 3054 3054 3055 3057 3057 3058 3058 3054 3052 3053 3055 3057 3058 3060 3063 3062 3060 3063 3066 3066 3067 3068 3071 3073 3073 3073 3074 3074 3073 3072 3072 3072 3072 3071 3071 3071 3070 3070 3070 3069 3068 3068 3067 3067 3067 3067 3066 3066 3065 3065 3063 3062 3061 3060 3059 3059 3058 3056 3055 3053 3052 3051 3049 3048 3046 3045 3043 3041 3039 3037 3035 3033 3032 3030 3028 3026 3024 3022 3020 3018 3016 3014 3012
3046 3047 3049 3051 3051 3052 3053 3052 3052 3050 3047 3047 3050 3053 3055 3054 3055 3059 3057 3053 3055 3059 3061 3062 3065 3067 3068 3068 3068 3069 3069 3068 3068 3068 3068 3068 3067 3067 3067 3067 3066 3066 3065 3064 3064 3063 3063 3062 3062 3061 3061 3060 3059 3058 3057 3056 3055 3054 3053 3052 3051 3049 3047 3046 3045 3043 3042 3040 3039 3037 3035 3033 3031 3030 3028 3026 3024 3022 3020 3018 3016 3014 3012 3010 3007 3006
3041 3042 3044 3045 3046 3047 3048 3047 3046 3044 3043 3045 3047 3048 3049 3050 3052 3055 3052 3047 3049 3054 3056 3059 3061 3063 3064 3065 3064 3064 3064 3064 3064 3064 3064 3064 3064 3064 3064 3064 3063 3063 3062 3061 3059 3059 3058 3058 3057 3057 3056 3055 3054 3053 3051 3050 3049 3048 3047 3046 3044 3043 3041 3040 3038 3037 3035 3034 3033 3031 3029 3027 3025 3023 3021 3019 3018 3016 3014 3012 3010 3008 3006 3004 3001 2999
3037 3038 3039 3040 3041 3044 3044 3042 3041 3040 3041 3044 3045 3045 3047 3048 3048 3047 3045 3044 3048 3051 3052 3055 3057 3058 3060 3060 3060 3060 3060 3060 3061 3061 3061 3062 3062 3061 3060 3060 3059 3058 3058 3057 3056 3054 3054 3053 3052 3052 3051 3050 3048 3047 3045 3044 3043 3041 3040 3039 3037 3035 3033 3032 3031 3029 3028 3027 3025 3024 3022 3021 3018 3016 3015 3013 3010 3009 3007 3005 3003 3002 3000 2998 2995 2993
3032 3034 3034 3035 3038 3039 3039 3039 3038 3036 3038 3041 3042 3041 3043 3043 3041 3040 3042 3044 3047 3047 3048 3050 3052 3053 3055 3055 3056 3057 3057 3057 3058 3058 3058 3057 3057 3057 3056 3055 3054 3054 3054 3053 3052 3051 3050 3048 3047 3047 3046 3044 3043 3041 3040 3038 3037 3035 3034 3032 3030 3028 3026 3025 3023 3021 3020 3018 3017 3016 3014 3013 3011 3009 3007 3005 3003 3001 3000 2998 2996 2994 2992 2991 2989 2987
3027 3029 3029 3030 3033 3035 3035 3035 3033 3031 3034 3038 3038 3038 3037 3036 3036 3038 3041 3042 3043 3044 3045 3046 3046 3048 3049 3050 3051 3052 3052 3053 3053 3053 3053 3052 3052 3052 3051 3051 3051 3050 3049 3049 3048 3046 3045 3044 3043 3042 3041 3039 3037 3035 3033 3031 3030 3029 3027 3026 3024 3022 3020 3018 3016 3014 3013 3011 3009 3007 3006 3004 3003 3001 3000 2998 2996 2993 2992 2990 2988 2986 2984 2983 2981 2979
3022 3023 3023 3025 3027 3028 3027 3027 3026 3027 3032 3034 3034 3033 3033 3032 3034 3037 3038 3039 3039 3040 3040 3041 3041 3042 3043 3044 3046 3046 3047 3048 3048 3047 3047 3047 3047 3046 3046 3046 3046 3045 3044 3044 3043 3041 3040 3039 3037 3037 3036 3035 3033 3031 3029 3026 3024 3022 3021 3019 3017 3016 3014 3012 3010 3008 3006 3004 3002 3000 2998 2996 2995 2993 2991 2990 2988 2986 2984 2982 2980 2978 2976 2974 2972 2971
3015 3017 3019 3020 3021 3021 3021 3022 3023 3027 3030 3030 3029 3028 3029 3030 3031 3033 3034 3035 3036 3036 3036 3037 3037 3038 3039 3040 3041 3041 3042 3042 3042 3042 3042 3042 3042 3042 3041 3041 3040 3039 3039 3038 3037 3036 3035 3033 3031 3030 3029 3029 3028 3026 3025 3022 3019 3017 3015 3013 3011 3009 3007 3005 3003 3001 3000 2998 2996 2994 2991 2989 2988 2986 2983 2982 2979 2977 2976 2974 2972 2970 2968 2966 2964 2962
3011 3014 3015 3016 3017 3017 3018 3019 3022 3024 3025 3025 3025 3024 3024 3025 3027 3028 3029 3031 3032 3032 3033 3033 3034 3035 3036 3036 3036 3036 3037 3037 3037 3037 3037 3037 3037 3037 3037 3036 3035 3034 3034 3033 3031 3030 3029 3028 3026 3025 3024 3023 3022 3020 3019 3018 3014 3011 3009 3007 3004 3002 3001 2999 2997 2995 2993 2991 2990 2988 2985 2983 2981 2979 2977 2975 2972 2970 2968 2966 2963 2962 2960 2958 2955 2953
3008 3010 3012 3012 3013 3014 3014 3015 3018 3020 3020 3021 3021 3021 3020 3020 3022 3024 3025 3026 3027 3028 3029 3030 3030 3031 3031 3031 3032 3032 3032 3032 3033 3033 3032 3033 3032 3032 3032 3031 3030 3029 3028 3027 3026 3024 3023 3022 3020 3019 3017 3017 3015 3014 3013 3012 3009 3006 3003 3001 2998 2995 2994 2993 2990 2988 2987 2985 2983 2981 2979 2977 2975 2973 2971 2968 2966 2963 2961 2958 2956 2954 2952 2950 2947 2945
3004 3006 3007 3008 3009 3010 3010 3012 3014 3015 3015 3017 3018 3017 3017 3017 3018 3020 3021 3022 3023 3024 3024 3025 3026 3026 3027 3027 3028 3028 3028 3028 3028 3028 3028 3028 3027 3027 3026 3025 3024 3023 3022 3021 3020 3018 3016 3015 3013 3012 3011 3010 3008 3007 3005 3004 3003 3000 2997 2994 2992 2989 2987 2986 2984 2982 2980 2978 2976 2974 2972 2970 2968 2966 2964 2962 2959 2957 2954 2952 2949 2947 2944 2942 2939 2937
3000 3001 3002 3004 3005 3005 3006 3009 3010 3010 3010 3013 3014 3014 3014 3014 3015 3016 3017 3018 3019 3020 3021 3022 3022 3022 3023 3023 3023 3023 3023 3023 3023 3023 3023 3023 3022 3021 3020 3019 3018 3017 3016 3015 3014 3012 3010 3009 3007 3005 3004 3003 3001 3000 2998 2997 2996 2993 2990 2988 2985 2982 2980 2978 2977 2975 2974 2972 2969 2967 2965 2963 2961 2959 2957 2955 2953 2951 2948 2945 2943 2940 2938 2935 2932 2930
2996 2996 2998 3000 3000 3000 3002 3005 3006 3006 3007 3009 3011 3011 3011 3012 3012 3013 3014 3015 3016 3016 3017 3018 3018 3018 3019 3018 3019 3019 3018 3018 3018 3018 3017 3017 3016 3016 3015 3014 3013 3012 3010 3009 3008 3006 3005 3003 3001 2999 2998 2996 2994 2993 2991 2990 2989 2987 2984 2981 2978 2975 2973 2971 2969 2968 2967 2965 2963 2961 2958 2956 2955 2952 2950 2948 2946 2944 2942 2939 2937 2934 2932 2929 2926 2924
2991 2992 2995 2995 2995 2997 3000 3002 3003 3003 3005 3006 3008 3008 3008 3009 3010 3010 3010 3011 3011 3012 3013 3013 3013 3014 3014 3014 3014 3014 3013 3013 3013 3012 3012 3011 3011 3010 3009 3008 3007 3006 3005 3003 3002 3000 2999 2997 2995 2993 2992 2990 2988 2986 2984 2983 2982 2979 2977 2975 2972 2968 2966 2964 2961 2960 2959 2958 2955 2953 2951 2949 2947 2945 2943 2941 2939 2937 2935 2933 2931 2928 2926 2924 2921 2918